This is the latest recevied weather packets stored in our database for station/object KA9CBS. If no packets are shown the sender has not sent any weather packets the latest 10 day(s).
| Time | Temp. | Humidity | Pressure | Rain* | Wind** | Luminosity | Snow |
|---|---|---|---|---|---|---|---|
| 1788165440 | 21.67° C | 92% | 1018.3 hPa | 0 mm | - | 0 W/m² | - |
| 1788165131 | 21.67° C | 91% | 1018.3 hPa | 0 mm | - | 0 W/m² | - |
| 1788164829 | 21.67° C | 92% | 1018.1 hPa | 0 mm | - | 0 W/m² | - |
| 1788164525 | 21.11° C | 93% | 1018.1 hPa | 0 mm | - | 0 W/m² | - |
| 1788164219 | 21.11° C | 93% | 1018 hPa | 0 mm | - | 0 W/m² | - |
| 1788163915 | 21.11° C | 93% | 1018.3 hPa | 0 mm | - | 0 W/m² | - |
| 1788163611 | 20.56° C | 93% | 1018.1 hPa | 0 mm | - | 0 W/m² | - |
| 1788163305 | 20.56° C | 92% | 1018.1 hPa | 0 mm | - | 0 W/m² | - |
| 1788163001 | 21.11° C | 92% | 1018.2 hPa | 0 mm | - | 0 W/m² | - |
| 1788162696 | 21.11° C | 91% | 1018 hPa | 0 mm | - | 0 W/m² | - |
| 1788162395 | 21.67° C | 90% | 1018.4 hPa | 0 mm | - | 0 W/m² | - |
| 1788162090 | 21.67° C | 90% | 1018.2 hPa | 0 mm | - | 0 W/m² | - |
| 1788161785 | 21.67° C | 89% | 1018.3 hPa | 0 mm | - | 0 W/m² | - |
| 1788161484 | 21.67° C | 89% | 1018.4 hPa | 0 mm | - | 0 W/m² | - |
| 1788161180 | 21.67° C | 88% | 1018.1 hPa | 0 mm | - | 0 W/m² | - |
| 1788160877 | 21.67° C | 88% | 1018.2 hPa | 0 mm | - | 0 W/m² | - |
| 1788160574 | 22.22° C | 87% | 1018.3 hPa | 0 mm | - | 0 W/m² | - |
| 1788160270 | 22.22° C | 86% | 1018.3 hPa | 0 mm | - | 0 W/m² | - |
| 1788159969 | 22.22° C | 85% | 1018.2 hPa | 0 mm | - | 0 W/m² | - |
| 1788159664 | 22.78° C | 84% | 1018.2 hPa | 0 mm | - | 0 W/m² | - |
| 1788159362 | 22.78° C | 84% | 1018.2 hPa | 0 mm | - | 0 W/m² | - |
| 1788159056 | 22.78° C | 83% | 1018.4 hPa | 0 mm | - | 0 W/m² | - |
| 1788158751 | 23.33° C | 82% | 1018.4 hPa | 0 mm | - | 0 W/m² | - |
| 1788158446 | 23.33° C | 82% | 1018.2 hPa | 0 mm | - | 0 W/m² | - |
| 1788158142 | 23.33° C | 81% | 1018.4 hPa | 0 mm | - | 0 W/m² | - |
* Rain latest hour (hover to see other rain measurements)
** Current wind speed in m/s (hover to see current wind gust speed)